Hourly Data Report for December 02, 2010

IQALUIT CLIMATE
NUNAVUT

63°44'50.000" N
68°32'40.000" W
33.50 m
2402592
71321
XFB

Download Data

Hourly Data (December 2010)
Hourly Data Report for December 2, 2010
TIME
LST
Temp Definition
°C
Dew Point Definition
°C
Rel Hum Definition
%
Precip. Amount Definition
mm

Wind Dir Definition
10's deg

Wind Spd Definition
km/h
Visibility Definition
km
Stn Press Definition
kPa
Hmdx Definition


Wind Chill Definition


Weather Definition


00:00 0.5 0.5 100   14 26   100.18     LegendNANA
01:00 0.9 0.9 100   13 20   100.16     LegendNANA
02:00 1.0 1.0 100   14 20   100.26     LegendNANA
03:00 1.2 1.2 100   13 19   100.25     LegendNANA
04:00 1.4 1.4 100   13 17   100.23     LegendNANA
05:00 1.8 1.8 100   13 20   100.25     LegendNANA
06:00 1.3 1.3 100   13 20   100.29     LegendNANA
07:00 1.2 1.2 100   14 19   100.29     LegendNANA
08:00 1.8 1.5 98   13 17   100.26     LegendNANA
09:00 1.4 0.9 96   14 15   100.39     LegendNANA
10:00 1.2 1.0 99   13 20   100.45     LegendNANA
11:00 0.9 0.9 100   15 19   100.52     LegendNANA
12:00 1.1 1.1 100   14 9   100.47     LegendNANA
13:00 1.5 1.5 100   12 11   100.48     LegendNANA
14:00 1.6 1.4 99   13 11   100.47     LegendNANA
15:00 1.5 0.4 92   13 15   100.62     LegendNANA
16:00 2.1 0.9 92   13 17   100.62     LegendNANA
17:00 1.7 0.8 94   12 19   100.64     LegendNANA
18:00 2.1 1.0 92   13 26   100.71     LegendNANA
19:00 2.6 1.4 92   14 30   100.69     LegendNANA
20:00 3.2 1.2 87   15 43   100.71     LegendNANA
21:00 2.0 1.1 94   14 28   100.73     LegendNANA
22:00 1.8 1.0 94   15 20   100.73     LegendNANA
23:00 2.3 1.2 92   15 24   100.78     LegendNANA

Notes on Data Quality.

Legend

  • E = Estimated
  • M = Missing
  • NA = Not Available*
  • [empty] = Indicates an unobserved value
Date modified: